This demonstration page uses our WeatherBlox Daily Observations layout. Learn more.

Left ArrowRight Arrow

Hourly Observations for May 12, 2021

Temp ( °F °C ) Dew Point ( °F °C ) Humidity (%) Winds ( mph kmh ) Pressure ( in mb ) Visibility ( mi km ) Precip ( " mm )
12:53 am 00:53 Clear 62 16.7 44 6.7 52 52 N 6 9 29.87 1011 10 16 0.00 0.00
1:53 am 01:53 Clear 62 16.7 41 5 46 46 Calm 29.87 1012 10 16 0.00 0.00
2:53 am 02:53 Clear 60 15.6 41 5 50 50 NNW 3 6 29.87 1012 10 16 0.00 0.00
3:53 am 03:53 Clear 59 15 42 5.6 54 54 Calm 29.87 1012 10 16 0.00 0.00
4:53 am 04:53 Clear 57 13.9 42 5.6 58 58 Calm 29.88 1012 10 16 0.00 0.00
5:53 am 05:53 Clear 59 15 42 5.6 54 54 NNW 3 6 29.88 1012 10 16 0.00 0.00
6:53 am 06:53 Sunny 58 14.4 44 6.7 60 60 Calm 29.91 1013 10 16 0.00 0.00
7:53 am 07:53 Sunny 68 20 43 6.1 40 40 N 3 6 29.91 1013 10 16 0.00 0.00
8:53 am 08:53 Sunny 75 23.9 43 6.1 32 32 N 8 13 29.92 1013 10 16 0.00 0.00
9:53 am 09:53 Sunny 81 27.2 40 4.4 23 23 N 3 6 29.92 1013 10 16 0.00 0.00
10:53 am 10:53 Sunny 85 29.4 39 3.9 20 20 Calm 29.91 1013 10 16 0.00 0.00
11:53 am 11:53 Sunny 88 31.1 36 2.2 16 16 ESE 3 6 29.91 1013 10 16 0.00 0.00
12:53 pm 12:53 Sunny 89 31.7 34 1.1 14 14 S 8 13 29.91 1013 10 16 0.00 0.00
1:53 pm 13:53 Sunny 92 33.3 36 2.2 14 14 S 9 15 29.90 1013 10 16 0.00 0.00
2:53 pm 14:53 Sunny 93 33.9 36 2.2 13 13 SE 14 22 29.88 1012 10 16 0.00 0.00
3:53 pm 15:53 Sunny 93 33.9 34 1.1 12 12 SE 12 19 29.86 1011 10 16 0.00 0.00
4:53 pm 16:53 Sunny 93 33.9 35 1.7 13 13 SSE 14 22 29.85 1011 10 16 0.00 0.00
5:53 pm 17:53 Sunny 93 33.9 32 0 11 11 S 12 19 29.84 1011 10 16 0.00 0.00
6:53 pm 18:53 Sunny 91 32.8 40 4.4 17 17 S 10 17 29.84 1011 10 16 0.00 0.00
7:53 pm 19:53 Sunny 86 30 42 5.6 21 21 SSE 7 11 29.85 1011 10 16 0.00 0.00
8:53 pm 20:53 Clear 82 27.8 43 6.1 25 25 SSE 3 6 29.87 1011 10 16 0.00 0.00
9:53 pm 21:53 Clear 77 25 45 7.2 32 32 N 3 6 29.88 1012 10 16 0.00 0.00
10:53 pm 22:53 Clear 73 22.8 47 8.3 40 40 NNE 3 6 29.91 1013 10 16 0.00 0.00
11:53 pm 23:53 Clear 71 21.7 43 6.1 36 36 NNE 3 6 29.91 1013 10 16 0.00 0.00

Powered by AerisWeather